Hourly Weather Barnasie

Today, 24 June, Thursday

Time Temperature Precipitation Wind Pressure Humidity
00:00 +17°C° 0 mm 0 mps 709 mmHg 97%
01:00 +19°C° 0 mm 1 mps 709 mmHg 98%
02:00 +19°C° 0 mm 1 mps 709 mmHg 98%
03:00 +20°C° 0 mm 1 mps 708 mmHg 97%
04:00 +20°C° 0 mm 1 mps 708 mmHg 97%
05:00 +21°C° 0 mm 1 mps 708 mmHg 92%
06:00 +23°C° 0 mm 1 mps 708 mmHg 87%
07:00 +24°C° 0 mm 1 mps 708 mmHg 82%
08:00 +26°C° 0 mm 1 mps 708 mmHg 70%
09:00 +29°C° 0 mm 1 mps 708 mmHg 58%
10:00 +31°C° 0 mm 1 mps 709 mmHg 47%
11:00 +32°C° 0 mm 2 mps 708 mmHg 44%
12:00 +34°C° 0 mm 2 mps 708 mmHg 41%
13:00 +35°C° 0 mm 3 mps 708 mmHg 38%
14:00 +33°C° 0.6 mm 3 mps 708 mmHg 47%
15:00 +30°C° 0.6 mm 3 mps 707 mmHg 56%
16:00 +28°C° 0.6 mm 3 mps 707 mmHg 64%
17:00 +26°C° 0.9 mm 2 mps 707 mmHg 72%
18:00 +25°C° 0.9 mm 2 mps 707 mmHg 80%
19:00 +23°C° 0.9 mm 1 mps 707 mmHg 88%
20:00 +22°C° 0.4 mm 1 mps 706 mmHg 88%
21:00 +21°C° 0.4 mm 1 mps 706 mmHg 89%
22:00 +20°C° 0.4 mm 1 mps 706 mmHg 90%
23:00 +20°C° 0.1 mm 1 mps 706 mmHg 90%

Tomorrow, 25 June, Friday

Time Temperature Precipitation Wind Pressure Humidity
00:00 +19°C° 0.1 mm 2 mps 705 mmHg 90%
01:00 +19°C° 0.1 mm 2 mps 705 mmHg 91%
02:00 +19°C° 0 mm 2 mps 705 mmHg 91%
03:00 +19°C° 0 mm 1 mps 705 mmHg 92%
04:00 +18°C° 0 mm 1 mps 705 mmHg 93%
05:00 +19°C° 0 mm 1 mps 705 mmHg 90%
06:00 +21°C° 0 mm 1 mps 706 mmHg 87%
07:00 +21°C° 0 mm 2 mps 706 mmHg 84%
08:00 +23°C° 0 mm 2 mps 706 mmHg 79%
09:00 +23°C° 0 mm 2 mps 707 mmHg 74%
10:00 +24°C° 0 mm 2 mps 707 mmHg 68%
11:00 +24°C° 0.3 mm 3 mps 707 mmHg 67%
12:00 +25°C° 0.3 mm 3 mps 707 mmHg 66%
13:00 +25°C° 0.3 mm 3 mps 708 mmHg 65%
14:00 +22°C° 0.3 mm 3 mps 707 mmHg 69%
15:00 +21°C° 0.3 mm 3 mps 707 mmHg 73%
16:00 +20°C° 0.3 mm 3 mps 707 mmHg 77%
17:00 +19°C° 0 mm 3 mps 708 mmHg 80%
18:00 +19°C° 0 mm 2 mps 708 mmHg 83%
19:00 +19°C° 0 mm 1 mps 708 mmHg 85%
20:00 +18°C° 0 mm 1 mps 708 mmHg 88%
21:00 +16°C° 0 mm 1 mps 708 mmHg 90%
22:00 +15°C° 0 mm 1 mps 708 mmHg 93%
23:00 +15°C° 0.1 mm 1 mps 708 mmHg 94%

Day after tomorrow, 26 June, Saturday

Time Temperature Precipitation Wind Pressure Humidity
00:00 +14°C° 0.1 mm 1 mps 708 mmHg 95%
01:00 +13°C° 0.1 mm 0 mps 708 mmHg 96%
02:00 +13°C° 0 mm 0 mps 708 mmHg 96%
03:00 +14°C° 0 mm 1 mps 708 mmHg 97%
04:00 +13°C° 0 mm 1 mps 708 mmHg 97%
05:00 +14°C° 0.1 mm 1 mps 708 mmHg 93%
06:00 +15°C° 0.1 mm 1 mps 709 mmHg 88%
07:00 +16°C° 0.1 mm 1 mps 709 mmHg 84%
08:00 +18°C° 0 mm 2 mps 709 mmHg 76%
09:00 +19°C° 0 mm 2 mps 709 mmHg 68%
10:00 +20°C° 0 mm 3 mps 709 mmHg 60%
11:00 +21°C° 0 mm 2 mps 709 mmHg 59%
12:00 +21°C° 0 mm 2 mps 709 mmHg 58%
13:00 +21°C° 0 mm 2 mps 709 mmHg 57%
14:00 +21°C° 0 mm 2 mps 709 mmHg 58%
15:00 +21°C° 0 mm 2 mps 709 mmHg 58%
16:00 +21°C° 0 mm 2 mps 709 mmHg 59%
17:00 +20°C° 0 mm 2 mps 708 mmHg 66%
18:00 +20°C° 0 mm 1 mps 708 mmHg 74%
19:00 +19°C° 0 mm 1 mps 708 mmHg 81%
20:00 +18°C° 0 mm 1 mps 708 mmHg 84%
21:00 +15°C° 0 mm 1 mps 708 mmHg 88%
22:00 +13°C° 0 mm 0 mps 708 mmHg 92%
23:00 +13°C° 0 mm 0 mps 708 mmHg 92%

27 June, Sunday

Time Temperature Precipitation Wind Pressure Humidity
00:00 +12°C° 0 mm 0 mps 708 mmHg 93%
01:00 +12°C° 0 mm 0 mps 708 mmHg 94%
02:00 +12°C° 0 mm 0 mps 708 mmHg 94%
03:00 +12°C° 0 mm 0 mps 708 mmHg 94%
04:00 +12°C° 0 mm 0 mps 708 mmHg 94%
05:00 +14°C° 0 mm 0 mps 709 mmHg 87%
06:00 +16°C° 0 mm 0 mps 709 mmHg 80%
07:00 +18°C° 0 mm 0 mps 709 mmHg 72%
08:00 +21°C° 0 mm 1 mps 709 mmHg 66%
09:00 +22°C° 0 mm 1 mps 709 mmHg 60%
10:00 +24°C° 0 mm 2 mps 709 mmHg 54%
11:00 +24°C° 0 mm 2 mps 709 mmHg 53%
12:00 +25°C° 0 mm 2 mps 709 mmHg 52%
13:00 +25°C° 0 mm 2 mps 709 mmHg 51%
14:00 +25°C° 0 mm 2 mps 709 mmHg 52%
15:00 +25°C° 0 mm 2 mps 709 mmHg 54%
16:00 +24°C° 0 mm 2 mps 709 mmHg 56%
17:00 +23°C° 0 mm 2 mps 709 mmHg 64%
18:00 +22°C° 0 mm 1 mps 709 mmHg 72%
19:00 +20°C° 0 mm 1 mps 709 mmHg 80%
20:00 +19°C° 0 mm 1 mps 709 mmHg 82%
21:00 +18°C° 0 mm 1 mps 709 mmHg 85%
22:00 +16°C° 0 mm 1 mps 709 mmHg 88%
23:00 +15°C° 0 mm 1 mps 709 mmHg 89%

28 June, Monday

Time Temperature Precipitation Wind Pressure Humidity
00:00 +15°C° 0 mm 1 mps 709 mmHg 89%
01:00 +15°C° 0 mm 1 mps 708 mmHg 89%
02:00 +15°C° 0 mm 1 mps 708 mmHg 89%
03:00 +14°C° 0 mm 1 mps 708 mmHg 89%
04:00 +14°C° 0 mm 1 mps 708 mmHg 89%
05:00 +18°C° 0 mm 1 mps 709 mmHg 81%
06:00 +20°C° 0 mm 1 mps 709 mmHg 73%
07:00 +22°C° 0 mm 1 mps 709 mmHg 64%
08:00 +24°C° 0 mm 1 mps 709 mmHg 58%
09:00 +26°C° 0 mm 1 mps 709 mmHg 52%
10:00 +28°C° 0 mm 1 mps 709 mmHg 45%
11:00 +28°C° 0 mm 1 mps 709 mmHg 43%
12:00 +29°C° 0 mm 1 mps 709 mmHg 41%
13:00 +30°C° 0 mm 1 mps 709 mmHg 39%
14:00 +29°C° 0 mm 2 mps 709 mmHg 43%
15:00 +28°C° 0 mm 2 mps 708 mmHg 47%
16:00 +28°C° 0 mm 2 mps 708 mmHg 50%
17:00 +26°C° 0 mm 2 mps 708 mmHg 60%
18:00 +24°C° 0 mm 1 mps 708 mmHg 69%
19:00 +23°C° 0 mm 1 mps 708 mmHg 79%
20:00 +21°C° 0 mm 1 mps 707 mmHg 81%
21:00 +20°C° 0 mm 1 mps 707 mmHg 84%
22:00 +19°C° 0 mm 1 mps 707 mmHg 87%
23:00 +19°C° 0 mm 1 mps 707 mmHg 86%

29 June, Tuesday

Time Temperature Precipitation Wind Pressure Humidity
00:00 +19°C° 0 mm 1 mps 707 mmHg 85%
01:00 +18°C° 0 mm 1 mps 707 mmHg 84%
02:00 +18°C° 0 mm 1 mps 707 mmHg 83%
03:00 +18°C° 0 mm 1 mps 707 mmHg 81%
04:00 +18°C° 0 mm 1 mps 707 mmHg 79%
05:00 +20°C° 0 mm 1 mps 707 mmHg 72%
06:00 +22°C° 0 mm 1 mps 707 mmHg 65%
07:00 +25°C° 0 mm 1 mps 708 mmHg 58%
08:00 +26°C° 0 mm 1 mps 708 mmHg 53%
09:00 +28°C° 0 mm 1 mps 708 mmHg 47%
10:00 +30°C° 0 mm 1 mps 708 mmHg 42%
11:00 +31°C° 0 mm 1 mps 708 mmHg 40%
12:00 +32°C° 0 mm 2 mps 708 mmHg 37%
13:00 +32°C° 0 mm 2 mps 707 mmHg 35%
14:00 +31°C° 0 mm 2 mps 707 mmHg 39%
15:00 +31°C° 0 mm 2 mps 707 mmHg 42%
16:00 +30°C° 0 mm 2 mps 707 mmHg 45%
17:00 +28°C° 0 mm 2 mps 706 mmHg 55%
18:00 +27°C° 0 mm 1 mps 706 mmHg 64%
19:00 +25°C° 0 mm 1 mps 706 mmHg 73%
20:00 +24°C° 0 mm 1 mps 706 mmHg 74%
21:00 +23°C° 0 mm 1 mps 706 mmHg 75%
22:00 +21°C° 0 mm 2 mps 706 mmHg 76%
23:00 +20°C° 0 mm 2 mps 706 mmHg 75%
Show more

We Need Your Consent

Meteoprog and our Service Providers may store and access personal data such as cookies, device identifiers or other similar technologies on your device and process such data to personalise content and ads, as well as provide social media features and to analyse the traffic.

  • Store and/or access information on your device

    Cookies, device identifiers or other information can be stored or accessed on your device for the purposes indicated above.

  • Personalised ads and content, ad and content measurement, audience insights, and products development

    Ads and content can be personalised based on a profile. More data can be added to better personalise ads and content. Ad and content performance can be measured. Insights about the audience who saw the ads and content can be derived. Such data can be used to develop or improve user’s experience, systems and software.

By clicking ‘I Agree’ you will allow the use of indicated cookies, device identifiers, web beacons or other similar technologies. Your settings can be changed in the browser on your device.

For certain purposes, legitimate interests may be relied on, rather than consent. You can read more about this in our Privacy and Cookie Policy.